Date String (YYYY-MM-DD hh:mm:ss) UTC,Instrument flags,Ambient pressure (hPa),Sample flow (lpm),Bypass flow (lpm),Sample temperature (°C),Ambient temperature (°C),ASC tube jacket temperature (°C),LED temperature (°C),Box temperature (°C),Sample RH (%),Span deviation,Mass concentration (μg/m³),Mass concentration (μg/m³),Mass concentration (μg/m³)
DateTimeUTC,F1_M11,P_M11,Q1_M11,Q2_M11,T1_M11,T2_M11,T3_M11,T4_M11,T5_M11,U1_M11,ZSPAN_M11,X2_M11,X0_M11,X1_M11
2023-05-21 20:00:00,,0833.0,4.99,0.00,29.7,28.3,00.0,38.0,31.4,16.9,0003.7,0017.36,0023.22,0016.36
2023-05-21 20:01:00,,0832.9,5.02,0.00,29.7,28.4,00.0,38.0,31.4,16.7,0003.7,0017.32,0023.63,0016.32
2023-05-21 20:02:00,,0832.9,5.00,0.00,29.8,28.4,00.0,38.0,31.5,16.3,0003.6,0017.31,0023.61,0016.32
2023-05-21 20:03:00,,0832.9,4.99,0.00,29.8,28.5,00.0,38.0,31.5,15.4,0003.6,0017.28,0023.61,0016.27
2023-05-21 20:04:00,,0833.0,4.99,0.00,29.8,28.4,00.0,38.0,31.5,15.6,0003.5,0017.18,0023.67,0016.20
2023-05-21 20:05:00,,0833.0,5.00,0.00,29.8,26.9,00.0,38.0,31.3,16.3,0003.4,0017.13,0023.92,0016.15
2023-05-21 20:06:00,,0832.8,5.00,0.00,29.8,26.1,00.0,37.9,31.2,16.8,0003.5,0017.14,0023.96,0016.14
2023-05-21 20:07:00,,0833.0,5.01,0.00,29.7,26.2,00.0,37.9,31.1,17.0,0003.7,0017.11,0023.90,0016.12
2023-05-21 20:08:00,,0833.3,5.00,0.00,29.6,26.4,00.0,37.9,31.1,16.6,0003.7,0017.06,0023.88,0016.12
2023-05-21 20:09:00,,0832.8,4.99,0.00,29.6,26.7,00.0,37.9,31.1,16.1,0003.8,0017.09,0024.08,0016.14
2023-05-21 20:10:00,,0832.9,4.99,0.00,29.6,27.0,00.0,37.9,31.2,15.9,0003.8,0017.14,0023.95,0016.15
2023-05-21 20:11:00,,0832.8,5.00,0.00,29.6,27.3,00.0,37.9,31.2,16.4,0003.9,0017.10,0023.73,0016.15
2023-05-21 20:12:00,,0832.8,5.00,0.00,29.6,27.5,00.0,37.9,31.2,17.3,0004.0,0017.06,0023.09,0016.13
2023-05-21 20:13:00,,0833.0,5.00,0.00,29.6,27.7,00.0,37.9,31.3,16.0,0004.1,0017.06,0023.17,0016.12
2023-05-21 20:14:00,,0833.3,5.00,0.00,29.6,27.9,00.0,37.9,31.3,16.0,0004.1,0017.03,0023.04,0016.11
2023-05-21 20:15:00,,0833.1,5.00,0.00,29.7,28.0,00.0,37.9,31.3,16.0,0004.1,0017.08,0022.97,0016.14
2023-05-21 20:16:00,,0833.2,5.00,0.00,29.7,28.1,00.0,38.0,31.4,16.7,0004.2,0017.04,0022.55,0016.12
2023-05-21 20:17:00,,0833.2,5.01,0.00,29.7,28.3,00.0,38.0,31.4,16.6,0004.2,0017.01,0022.20,0016.10
2023-05-21 20:18:00,,0833.1,4.99,0.00,29.7,28.4,00.0,38.0,31.4,15.3,0004.1,0016.99,0022.61,0016.07
2023-05-21 20:19:00,,0833.3,5.01,0.00,29.8,28.5,00.0,38.0,31.5,15.8,0004.0,0017.01,0022.96,0016.05
2023-05-21 20:20:00,,0833.1,5.00,0.00,29.8,28.4,00.0,38.0,31.5,16.1,0003.9,0017.03,0022.98,0016.04
2023-05-21 20:21:00,,0832.7,5.00,0.00,29.8,26.8,00.0,38.0,31.3,16.3,0003.9,0016.97,0023.15,0016.01
2023-05-21 20:22:00,,0832.8,5.01,0.00,29.7,26.0,00.0,37.9,31.2,16.5,0003.9,0016.99,0023.27,0016.02
2023-05-21 20:23:00,,0832.8,5.01,0.00,29.7,26.2,00.0,37.9,31.1,15.5,0003.9,0017.04,0023.43,0016.05
2023-05-21 20:24:00,,0832.8,5.00,0.00,29.6,26.4,00.0,37.9,31.1,15.6,0003.8,0016.96,0023.93,0016.02
2023-05-21 20:25:00,,0832.8,5.00,0.00,29.6,26.7,00.0,37.9,31.1,16.1,0003.7,0016.97,0024.18,0016.00
2023-05-21 20:26:00,,0832.7,5.01,0.00,29.6,27.0,00.0,37.9,31.1,15.9,0003.7,0016.97,0024.20,0016.00
2023-05-21 20:27:00,,0832.7,4.99,0.00,29.6,27.3,00.0,37.9,31.2,16.7,0003.8,0017.00,0024.30,0016.02
2023-05-21 20:28:00,,0832.7,5.00,0.00,29.6,27.5,00.0,37.9,31.2,16.3,0003.7,0017.05,0024.45,0016.04
2023-05-21 20:29:00,,0832.7,5.00,0.00,29.6,27.7,00.0,37.9,31.3,17.4,0003.6,0017.09,0024.36,0016.06
2023-05-21 20:30:00,,0832.7,5.01,0.00,29.6,27.9,00.0,37.9,31.3,16.9,0003.5,0017.12,0024.05,0016.09
2023-05-21 20:31:00,,0832.7,4.99,0.00,29.7,28.1,00.0,37.9,31.4,17.2,0003.5,0017.12,0023.98,0016.09
2023-05-21 20:32:00,,0832.7,5.00,0.00,29.7,28.2,00.0,37.9,31.4,16.3,0003.5,0017.09,0023.43,0016.10
2023-05-21 20:33:00,,0832.7,5.00,0.00,29.7,28.3,00.0,38.0,31.4,16.5,0003.5,0017.05,0023.39,0016.08
2023-05-21 20:34:00,,0832.7,5.01,0.00,29.7,28.4,00.0,38.0,31.4,16.0,0003.4,0017.07,0023.24,0016.10
2023-05-21 20:35:00,,0832.8,5.01,0.00,29.8,28.5,00.0,38.0,31.5,16.3,0003.5,0017.08,0022.68,0016.10
2023-05-21 20:36:00,,0832.7,4.99,0.00,29.8,28.6,00.0,38.0,31.5,16.2,0003.5,0017.09,0022.40,0016.10
2023-05-21 20:37:00,,0832.7,5.01,0.00,29.8,28.6,00.0,38.0,31.6,16.0,0003.4,0017.05,0022.37,0016.06
2023-05-21 20:38:00,,0832.7,5.01,0.00,29.9,28.0,00.0,38.0,31.5,15.8,0003.3,0017.03,0022.54,0016.04
2023-05-21 20:39:00,,0832.7,4.99,0.00,29.8,26.4,00.0,38.0,31.3,15.5,0003.3,0016.99,0023.52,0016.02
2023-05-21 20:40:00,,0832.7,5.00,0.00,29.8,26.1,00.0,37.9,31.2,15.2,0003.4,0016.95,0023.91,0016.00
2023-05-21 20:41:00,,0832.7,5.01,0.00,29.7,26.2,00.0,37.9,31.1,15.8,0003.5,0016.88,0024.10,0015.94
2023-05-21 20:42:00,,0832.6,4.99,0.00,29.6,26.5,00.0,37.9,31.1,15.8,0003.5,0016.83,0024.11,0015.90
2023-05-21 20:43:00,,0832.7,5.00,0.00,29.6,26.9,00.0,37.9,31.2,16.0,0003.3,0016.82,0024.32,0015.85
2023-05-21 20:44:00,,0832.7,4.99,0.00,29.6,27.1,00.0,37.9,31.2,16.6,0003.1,0016.83,0024.70,0015.83
2023-05-21 20:45:00,,0832.7,5.00,0.00,29.6,27.4,00.0,37.9,31.3,15.6,0003.2,0016.75,0024.73,0015.78
2023-05-21 20:46:00,,0832.6,5.00,0.00,29.6,27.7,00.0,37.9,31.3,16.3,0003.1,0016.77,0025.24,0015.79
2023-05-21 20:47:00,,0832.6,4.98,0.00,29.7,27.9,00.0,37.9,31.3,16.1,0003.2,0016.75,0025.33,0015.78
2023-05-21 20:48:00,,0832.6,5.00,0.00,29.7,28.0,00.0,38.0,31.4,16.9,0003.3,0016.72,0025.32,0015.76
2023-05-21 20:49:00,,0832.6,5.02,0.00,29.7,28.2,00.0,38.0,31.4,16.6,0003.4,0016.72,0025.20,0015.76
2023-05-21 20:50:00,,0832.6,5.00,0.00,29.7,28.3,00.0,38.0,31.4,15.5,0003.5,0016.72,0024.16,0015.75
2023-05-21 20:51:00,,0832.6,4.99,0.00,29.8,28.4,00.0,38.0,31.5,15.6,0003.5,0016.69,0023.56,0015.72
2023-05-21 20:52:00,,0832.6,5.01,0.00,29.8,28.5,00.0,38.0,31.5,15.4,0003.6,0016.70,0023.24,0015.74
2023-05-21 20:53:00,,0832.6,5.00,0.00,29.8,27.8,00.0,38.0,31.5,15.9,0003.5,0016.70,0023.17,0015.73
2023-05-21 20:54:00,,0832.6,5.00,0.00,29.8,26.3,00.0,37.9,31.2,15.9,0003.7,0016.76,0023.23,0015.75
2023-05-21 20:55:00,,0832.5,5.00,0.00,29.7,26.1,00.0,37.9,31.1,16.4,0003.9,0016.79,0022.73,0015.78
2023-05-21 20:56:00,,0832.5,5.01,0.00,29.6,26.2,00.0,37.9,31.0,16.9,0003.9,0016.81,0022.62,0015.78
2023-05-21 20:57:00,,0832.6,4.99,0.00,29.6,26.5,00.0,37.9,31.1,16.4,0003.9,0016.80,0022.21,0015.76
2023-05-21 20:58:00,,0832.6,5.00,0.00,29.6,26.8,00.0,37.9,31.1,15.4,0003.9,0016.80,0022.20,0015.77
2023-05-21 20:59:00,,0832.5,5.00,0.00,29.6,27.1,00.0,37.9,31.2,15.3,0003.9,0016.77,0022.38,0015.76
